Time,TemperatureF,DewpointF,PressureIn,WindDirection,WindDirectionDegrees,WindSpeedMPH,WindSpeedGustMPH,Humidity,HourlyPrecipIn,Conditions,Clouds,dailyrainin,SoftwareType,DateUTC
2013-02-02 00:00:00,21.8,3.7,30.18,NW,317,7.0,15.0,45,0.00,,---,0.00,VWS V13.01,2013-02-02 05:00:00,
2013-02-02 00:01:00,21.6,3.5,30.18,WNW,303,3.0,15.0,45,0.00,,---,0.00,VWS V13.01,2013-02-02 05:01:00,
2013-02-02 00:06:00,21.6,4.0,30.18,West,275,7.0,15.0,46,0.00,,---,0.00,VWS V13.01,2013-02-02 05:06:00,
2013-02-02 00:11:00,21.4,3.8,30.18,WNW,296,7.0,15.0,46,0.00,,---,0.00,VWS V13.01,2013-02-02 05:11:00,
2013-02-02 00:16:00,21.4,3.8,30.18,NW,315,11.0,14.0,46,0.00,,---,0.00,VWS V13.01,2013-02-02 05:16:00,
2013-02-02 00:21:00,21.4,3.8,30.18,NW,313,4.0,15.0,46,0.00,,---,0.00,VWS V13.01,2013-02-02 05:21:00,
2013-02-02 00:26:00,21.4,3.4,30.19,WNW,284,9.0,18.0,45,0.00,,---,0.00,VWS V13.01,2013-02-02 05:26:00,
2013-02-02 00:31:00,21.3,3.8,30.19,WNW,293,6.0,11.0,46,0.00,,---,0.00,VWS V13.01,2013-02-02 05:31:00,
2013-02-02 00:36:00,21.1,4.0,30.19,West,279,6.0,11.0,47,0.00,,---,0.00,VWS V13.01,2013-02-02 05:36:00,
2013-02-02 00:41:00,20.8,4.2,30.19,WNW,294,6.0,11.0,48,0.00,,---,0.00,VWS V13.01,2013-02-02 05:41:00,
2013-02-02 00:46:00,21.0,3.9,30.19,NW,321,8.0,16.0,47,0.00,,---,0.00,VWS V13.01,2013-02-02 05:46:00,
2013-02-02 00:51:00,20.8,4.2,30.19,NW,309,11.0,16.0,48,0.00,,---,0.00,VWS V13.01,2013-02-02 05:51:00,
2013-02-02 00:56:00,20.8,4.2,30.19,WNW,296,11.0,16.0,48,0.00,,---,0.00,VWS V13.01,2013-02-02 05:56:00,
2013-02-02 01:01:00,20.8,3.8,30.19,NW,304,9.0,16.0,47,0.00,,---,0.00,VWS V13.01,2013-02-02 06:01:00,
2013-02-02 01:06:00,20.6,4.0,30.19,WNW,298,3.0,16.0,48,0.00,,---,0.00,VWS V13.01,2013-02-02 06:06:00,
2013-02-02 01:11:00,20.5,4.4,30.20,NW,305,3.0,16.0,49,0.00,,---,0.00,VWS V13.01,2013-02-02 06:11:00,
2013-02-02 01:16:00,20.3,4.6,30.20,WNW,286,7.0,7.0,50,0.00,,---,0.00,VWS V13.01,2013-02-02 06:16:00,
2013-02-02 01:21:00,20.2,4.6,30.20,WNW,302,4.0,7.0,50,0.00,,---,0.00,VWS V13.01,2013-02-02 06:21:00,
2013-02-02 01:26:00,20.0,4.8,30.20,NW,305,5.0,7.0,51,0.00,,---,0.00,VWS V13.01,2013-02-02 06:26:00,
2013-02-02 01:31:00,20.0,4.8,30.20,WNW,288,2.0,10.0,51,0.00,,---,0.00,VWS V13.01,2013-02-02 06:31:00,
2013-02-02 01:36:00,19.9,4.7,30.20,NW,319,4.0,10.0,51,0.00,,---,0.00,VWS V13.01,2013-02-02 06:36:00,
2013-02-02 01:41:00,19.7,4.5,30.20,NW,306,10.0,10.0,51,0.00,,---,0.00,VWS V13.01,2013-02-02 06:41:00,
2013-02-02 01:46:00,19.9,4.3,30.20,WNW,300,7.0,12.0,50,0.00,,---,0.00,VWS V13.01,2013-02-02 06:46:00,
2013-02-02 01:51:00,19.9,4.3,30.20,NW,315,2.0,12.0,50,0.00,,---,0.00,VWS V13.01,2013-02-02 06:51:00,
2013-02-02 01:56:00,19.7,4.5,30.20,WNW,295,0.0,12.0,51,0.00,,---,0.00,VWS V13.01,2013-02-02 06:56:00,
2013-02-02 02:01:00,19.7,4.5,30.20,WNW,285,3.0,9.0,51,0.00,,---,0.00,VWS V13.01,2013-02-02 07:01:00,
2013-02-02 02:05:00,19.7,4.5,30.20,WNW,293,5.0,9.0,51,0.00,,---,0.00,VWS V13.01,2013-02-02 07:05:00,
2013-02-02 02:10:00,19.5,3.9,30.22,WNW,290,1.0,11.0,50,0.00,,---,0.00,VWS V13.01,2013-02-02 07:10:00,
2013-02-02 02:15:00,19.7,4.1,30.22,WNW,294,4.0,11.0,50,0.00,,---,0.00,VWS V13.01,2013-02-02 07:15:00,
2013-02-02 02:20:00,19.5,3.9,30.22,WNW,284,3.0,11.0,50,0.00,,---,0.00,VWS V13.01,2013-02-02 07:20:00,
2013-02-02 02:25:00,19.5,3.9,30.22,WNW,289,0.0,11.0,50,0.00,,---,0.00,VWS V13.01,2013-02-02 07:25:00,
2013-02-02 02:30:00,19.4,4.2,30.22,WNW,292,4.0,7.0,51,0.00,,---,0.00,VWS V13.01,2013-02-02 07:30:00,
2013-02-02 02:35:00,19.2,4.5,30.22,WNW,296,1.0,7.0,52,0.00,,---,0.00,VWS V13.01,2013-02-02 07:35:00,
2013-02-02 02:40:00,19.1,4.4,30.22,WNW,286,2.0,10.0,52,0.00,,---,0.00,VWS V13.01,2013-02-02 07:40:00,
2013-02-02 02:45:00,18.9,4.2,30.22,NW,312,3.0,9.0,52,0.00,,---,0.00,VWS V13.01,2013-02-02 07:45:00,
2013-02-02 02:50:00,19.1,4.0,30.22,WNW,295,5.0,10.0,51,0.00,,---,0.00,VWS V13.01,2013-02-02 07:50:00,
2013-02-02 02:55:00,19.1,4.0,30.22,WNW,289,1.0,13.0,51,0.00,,---,0.00,VWS V13.01,2013-02-02 07:55:00,
2013-02-02 03:00:00,19.1,4.0,30.22,West,279,3.0,10.0,51,0.00,,---,0.00,VWS V13.01,2013-02-02 08:00:00,
2013-02-02 03:06:00,18.9,3.8,30.22,WNW,302,2.0,10.0,51,0.00,,---,0.00,VWS V13.01,2013-02-02 08:06:00,
2013-02-02 03:11:00,18.9,3.8,30.22,WNW,303,0.0,10.0,51,0.00,,---,0.00,VWS V13.01,2013-02-02 08:11:00,
2013-02-02 03:16:00,18.8,4.1,30.22,WNW,301,1.0,4.0,52,0.00,,---,0.00,VWS V13.01,2013-02-02 08:16:00,
2013-02-02 03:21:00,18.6,4.3,30.22,NNW,330,1.0,6.0,53,0.00,,---,0.00,VWS V13.01,2013-02-02 08:21:00,
2013-02-02 03:26:00,18.4,4.1,30.22,NNW,330,1.0,6.0,53,0.00,,---,0.00,VWS V13.01,2013-02-02 08:26:00,
2013-02-02 03:31:00,18.6,3.9,30.22,NW,315,3.0,13.0,52,0.00,,---,0.00,VWS V13.01,2013-02-02 08:31:00,
2013-02-02 03:36:00,18.6,3.9,30.22,WNW,297,5.0,13.0,52,0.00,,---,0.00,VWS V13.01,2013-02-02 08:36:00,
2013-02-02 03:41:00,18.6,4.3,30.22,WNW,297,0.0,13.0,53,0.00,,---,0.00,VWS V13.01,2013-02-02 08:41:00,
2013-02-02 03:46:00,18.4,4.1,30.22,NW,306,0.0,8.0,53,0.00,,---,0.00,VWS V13.01,2013-02-02 08:46:00,
2013-02-02 03:51:00,18.4,4.6,30.22,WNW,300,2.0,10.0,54,0.00,,---,0.00,VWS V13.01,2013-02-02 08:51:00,
2013-02-02 03:56:00,18.4,4.6,30.22,WNW,294,2.0,10.0,54,0.00,,---,0.00,VWS V13.01,2013-02-02 08:56:00,
2013-02-02 04:01:00,18.3,4.4,30.22,NW,325,4.0,9.0,54,0.00,,---,0.00,VWS V13.01,2013-02-02 09:01:00,
2013-02-02 04:06:00,18.3,4.4,30.22,NW,304,4.0,9.0,54,0.00,,---,0.00,VWS V13.01,2013-02-02 09:06:00,
2013-02-02 04:11:00,18.4,4.6,30.22,WNW,302,1.0,11.0,54,0.00,,---,0.00,VWS V13.01,2013-02-02 09:11:00,
2013-02-02 04:16:00,18.3,4.8,30.22,WNW,298,0.0,5.0,55,0.00,,---,0.00,VWS V13.01,2013-02-02 09:16:00,
2013-02-02 04:21:00,18.0,5.0,30.22,WNW,298,0.0,5.0,56,0.00,,---,0.00,VWS V13.01,2013-02-02 09:21:00,
2013-02-02 04:26:00,18.0,5.0,30.22,WNW,294,3.0,9.0,56,0.00,,---,0.00,VWS V13.01,2013-02-02 09:26:00,
2013-02-02 04:31:00,18.0,5.0,30.22,NW,306,0.0,6.0,56,0.00,,---,0.00,VWS V13.01,2013-02-02 09:31:00,
2013-02-02 04:36:00,18.0,5.0,30.22,NW,309,2.0,10.0,56,0.00,,---,0.00,VWS V13.01,2013-02-02 09:36:00,
2013-02-02 04:41:00,17.8,4.8,30.22,NW,304,2.0,10.0,56,0.00,,---,0.00,VWS V13.01,2013-02-02 09:41:00,
2013-02-02 04:46:00,18.0,5.0,30.22,NW,309,5.0,10.0,56,0.00,,---,0.00,VWS V13.01,2013-02-02 09:46:00,
2013-02-02 04:51:00,18.0,5.0,30.22,WNW,298,1.0,10.0,56,0.00,,---,0.00,VWS V13.01,2013-02-02 09:51:00,
2013-02-02 04:56:00,17.8,5.2,30.22,WNW,291,2.0,10.0,57,0.00,,---,0.00,VWS V13.01,2013-02-02 09:56:00,
2013-02-02 05:01:00,17.5,4.9,30.22,WNW,292,0.0,4.0,57,0.00,,---,0.00,VWS V13.01,2013-02-02 10:01:00,
2013-02-02 05:06:00,17.3,4.7,30.22,WNW,288,3.0,7.0,57,0.00,,---,0.00,VWS V13.01,2013-02-02 10:06:00,
2013-02-02 05:11:00,17.3,4.7,30.22,WNW,294,0.0,7.0,57,0.00,,---,0.00,VWS V13.01,2013-02-02 10:11:00,
2013-02-02 05:16:00,17.3,4.7,30.22,WNW,287,2.0,6.0,57,0.00,,---,0.00,VWS V13.01,2013-02-02 10:16:00,
2013-02-02 05:21:00,17.3,4.7,30.22,WNW,286,5.0,9.0,57,0.00,,---,0.00,VWS V13.01,2013-02-02 10:21:00,
2013-02-02 05:26:00,17.3,5.1,30.21,WNW,283,2.0,9.0,58,0.00,,---,0.00,VWS V13.01,2013-02-02 10:26:00,
2013-02-02 05:31:00,17.2,5.0,30.21,WNW,296,0.0,6.0,58,0.00,,---,0.00,VWS V13.01,2013-02-02 10:31:00,
2013-02-02 05:36:00,17.2,5.0,30.21,WNW,302,6.0,7.0,58,0.00,,---,0.00,VWS V13.01,2013-02-02 10:36:00,
2013-02-02 05:41:00,17.2,5.0,30.21,WNW,295,3.0,7.0,58,0.00,,---,0.00,VWS V13.01,2013-02-02 10:41:00,
2013-02-02 05:45:00,17.0,4.8,30.21,WNW,292,0.0,5.0,58,0.00,,---,0.00,VWS V13.01,2013-02-02 10:45:00,
2013-02-02 05:50:00,16.9,4.7,30.21,WNW,292,0.0,5.0,58,0.00,,---,0.00,VWS V13.01,2013-02-02 10:50:00,
2013-02-02 05:55:00,16.9,4.7,30.21,WNW,292,0.0,5.0,58,0.00,,---,0.00,VWS V13.01,2013-02-02 10:55:00,
2013-02-02 06:00:00,16.9,4.7,30.21,WNW,289,3.0,5.0,58,0.00,,---,0.00,VWS V13.01,2013-02-02 11:00:00,
2013-02-02 06:05:00,16.9,4.7,30.21,WNW,288,2.0,5.0,58,0.00,,---,0.00,VWS V13.01,2013-02-02 11:05:00,
2013-02-02 06:10:00,16.9,4.7,30.22,WNW,288,0.0,5.0,58,0.00,,---,0.00,VWS V13.01,2013-02-02 11:10:00,
2013-02-02 06:15:00,16.7,4.5,30.22,WNW,288,0.0,2.0,58,0.00,,---,0.00,VWS V13.01,2013-02-02 11:15:00,
2013-02-02 06:20:00,16.5,4.3,30.22,WNW,289,0.0,5.0,58,0.00,,---,0.00,VWS V13.01,2013-02-02 11:20:00,
2013-02-02 06:25:00,16.5,4.3,30.22,WNW,289,0.0,5.0,58,0.00,,---,0.00,VWS V13.01,2013-02-02 11:25:00,
2013-02-02 06:30:00,16.4,4.6,30.22,WNW,289,0.0,3.0,59,0.00,,---,0.00,VWS V13.01,2013-02-02 11:30:00,
2013-02-02 06:35:00,16.4,4.6,30.22,WNW,289,3.0,4.0,59,0.00,,---,0.00,VWS V13.01,2013-02-02 11:35:00,
2013-02-02 06:40:00,16.4,4.6,30.22,WNW,289,1.0,4.0,59,0.00,,---,0.00,VWS V13.01,2013-02-02 11:40:00,
2013-02-02 06:45:00,16.2,4.4,30.22,WNW,289,2.0,4.0,59,0.00,,---,0.00,VWS V13.01,2013-02-02 11:45:00,
2013-02-02 06:50:00,16.2,4.4,30.22,WNW,288,2.0,8.0,59,0.00,,---,0.00,VWS V13.01,2013-02-02 11:50:00,
2013-02-02 06:55:00,16.2,4.0,30.23,WNW,288,2.0,8.0,58,0.00,,---,0.00,VWS V13.01,2013-02-02 11:55:00,
2013-02-02 07:00:00,16.2,4.0,30.23,WNW,288,0.0,5.0,58,0.00,,---,0.00,VWS V13.01,2013-02-02 12:00:00,
2013-02-02 07:05:00,16.2,4.0,30.23,WNW,288,1.0,5.0,58,0.00,,---,0.00,VWS V13.01,2013-02-02 12:05:00,
2013-02-02 07:10:00,16.1,3.9,30.23,WNW,288,1.0,5.0,58,0.00,,---,0.00,VWS V13.01,2013-02-02 12:10:00,
2013-02-02 07:15:00,16.1,3.9,30.23,WNW,286,0.0,4.0,58,0.00,,---,0.00,VWS V13.01,2013-02-02 12:15:00,
2013-02-02 07:20:00,16.2,4.0,30.23,WNW,292,3.0,8.0,58,0.00,,---,0.00,VWS V13.01,2013-02-02 12:20:00,
2013-02-02 07:25:00,16.4,3.8,30.23,WNW,292,4.0,8.0,57,0.00,,---,0.00,VWS V13.01,2013-02-02 12:25:00,
2013-02-02 07:30:00,16.4,3.8,30.23,WNW,292,0.0,3.0,57,0.00,,---,0.00,VWS V13.01,2013-02-02 12:30:00,
2013-02-02 07:35:00,16.5,3.9,30.23,WNW,292,0.0,4.0,57,0.00,,---,0.00,VWS V13.01,2013-02-02 12:35:00,
2013-02-02 07:40:00,16.5,3.9,30.23,WNW,292,0.0,4.0,57,0.00,,---,0.00,VWS V13.01,2013-02-02 12:40:00,
2013-02-02 07:45:00,16.9,4.3,30.23,WNW,292,0.0,2.0,57,0.00,,---,0.00,VWS V13.01,2013-02-02 12:45:00,
2013-02-02 07:50:00,17.0,4.0,30.23,WNW,292,0.0,3.0,56,0.00,,---,0.00,VWS V13.01,2013-02-02 12:50:00,
2013-02-02 07:55:00,17.3,4.3,30.23,WNW,292,0.0,3.0,56,0.00,,---,0.00,VWS V13.01,2013-02-02 12:55:00,
2013-02-02 08:00:00,17.5,4.1,30.23,WNW,292,0.0,3.0,55,0.00,,---,0.00,VWS V13.01,2013-02-02 13:00:00,
2013-02-02 08:05:00,17.8,4.4,30.23,WNW,292,0.0,3.0,55,0.00,,---,0.00,VWS V13.01,2013-02-02 13:05:00,
2013-02-02 08:10:00,18.0,4.6,30.23,WNW,292,0.0,3.0,55,0.00,,---,0.00,VWS V13.01,2013-02-02 13:10:00,
2013-02-02 08:15:00,18.1,4.3,30.23,SW,234,2.0,5.0,54,0.00,,---,0.00,VWS V13.01,2013-02-02 13:15:00,
2013-02-02 08:20:00,18.3,4.4,30.23,WSW,252,3.0,5.0,54,0.00,,---,0.00,VWS V13.01,2013-02-02 13:20:00,
2013-02-02 08:25:00,18.1,3.5,30.23,WNW,284,3.0,6.0,52,0.00,,---,0.00,VWS V13.01,2013-02-02 13:25:00,
2013-02-02 08:30:00,18.3,4.1,30.23,WNW,296,4.0,4.0,53,0.00,,---,0.00,VWS V13.01,2013-02-02 13:30:00,
2013-02-02 08:35:00,18.6,3.9,30.23,West,275,4.0,5.0,52,0.00,,---,0.00,VWS V13.01,2013-02-02 13:35:00,
2013-02-02 08:40:00,18.6,3.9,30.22,WNW,298,4.0,6.0,52,0.00,,---,0.00,VWS V13.01,2013-02-02 13:40:00,
2013-02-02 08:45:00,18.6,3.1,30.22,WNW,291,5.0,11.0,50,0.00,,---,0.00,VWS V13.01,2013-02-02 13:45:00,
2013-02-02 08:50:00,18.8,3.7,30.22,WNW,289,5.0,11.0,51,0.00,,---,0.00,VWS V13.01,2013-02-02 13:50:00,
2013-02-02 08:55:00,19.1,3.1,30.22,NW,305,5.0,11.0,49,0.00,,---,0.00,VWS V13.01,2013-02-02 13:55:00,
2013-02-02 09:00:00,19.4,3.8,30.22,NW,312,0.0,6.0,50,0.00,,---,0.00,VWS V13.01,2013-02-02 14:00:00,
2013-02-02 09:05:00,19.4,3.4,30.22,NW,305,5.0,9.0,49,0.00,,---,0.00,VWS V13.01,2013-02-02 14:05:00,
2013-02-02 09:10:00,19.4,2.9,30.22,WNW,290,5.0,9.0,48,0.00,,---,0.00,VWS V13.01,2013-02-02 14:10:00,
2013-02-02 09:15:00,19.9,3.8,30.22,WNW,298,1.0,9.0,49,0.00,,---,0.00,VWS V13.01,2013-02-02 14:15:00,
2013-02-02 09:20:00,20.2,3.2,30.22,WNW,288,5.0,9.0,47,0.00,,---,0.00,VWS V13.01,2013-02-02 14:20:00,
2013-02-02 09:25:00,20.0,3.0,30.21,WNW,294,4.0,9.0,47,0.00,,---,0.00,VWS V13.01,2013-02-02 14:25:00,
2013-02-02 09:30:00,20.2,3.2,30.21,NW,306,5.0,7.0,47,0.00,,---,0.00,VWS V13.01,2013-02-02 14:30:00,
2013-02-02 09:35:00,20.5,3.5,30.21,WNW,301,0.0,7.0,47,0.00,,---,0.00,VWS V13.01,2013-02-02 14:35:00,
2013-02-02 09:40:00,21.0,3.5,30.21,WNW,284,0.0,8.0,46,0.00,,---,0.00,VWS V13.01,2013-02-02 14:40:00,
2013-02-02 09:45:00,21.1,3.6,30.21,WNW,287,1.0,8.0,46,0.00,,---,0.00,VWS V13.01,2013-02-02 14:45:00,
2013-02-02 09:50:00,21.4,3.8,30.21,West,279,0.0,8.0,46,0.00,,---,0.00,VWS V13.01,2013-02-02 14:50:00,
2013-02-02 09:55:00,21.4,3.4,30.20,WNW,283,3.0,8.0,45,0.00,,---,0.00,VWS V13.01,2013-02-02 14:55:00,
2013-02-02 10:00:00,21.6,3.5,30.20,WNW,284,5.0,7.0,45,0.00,,---,0.00,VWS V13.01,2013-02-02 15:00:00,
2013-02-02 10:05:00,21.8,3.7,30.20,WNW,291,6.0,7.0,45,0.00,,---,0.00,VWS V13.01,2013-02-02 15:05:00,
2013-02-02 10:10:00,22.2,4.1,30.20,SW,223,2.0,7.0,45,0.00,,---,0.00,VWS V13.01,2013-02-02 15:10:00,
2013-02-02 10:15:00,22.5,4.4,30.20,SW,221,2.0,6.0,45,0.00,,---,0.00,VWS V13.01,2013-02-02 15:15:00,
2013-02-02 10:20:00,22.5,3.9,30.20,SW,234,2.0,9.0,44,0.00,,---,0.00,VWS V13.01,2013-02-02 15:20:00,
2013-02-02 10:25:00,22.9,3.8,30.19,WSW,247,0.0,9.0,43,0.00,,---,0.00,VWS V13.01,2013-02-02 15:25:00,
2013-02-02 10:30:00,23.0,3.8,30.19,SW,227,5.0,11.0,43,0.00,,---,0.00,VWS V13.01,2013-02-02 15:30:00,
2013-02-02 10:35:00,22.9,3.8,30.19,SW,217,3.0,11.0,43,0.00,,---,0.00,VWS V13.01,2013-02-02 15:35:00,
2013-02-02 10:40:00,23.5,4.8,30.19,SSW,211,5.0,11.0,44,0.00,,---,0.00,VWS V13.01,2013-02-02 15:40:00,
2013-02-02 10:45:00,23.5,4.3,30.19,WNW,290,0.0,10.0,43,0.00,,---,0.00,VWS V13.01,2013-02-02 15:45:00,
2013-02-02 10:50:00,24.1,4.3,30.19,WNW,301,0.0,10.0,42,0.00,,---,0.00,VWS V13.01,2013-02-02 15:50:00,
2013-02-02 10:55:00,23.8,3.5,30.18,WNW,301,9.0,12.0,41,0.00,,---,0.00,VWS V13.01,2013-02-02 15:55:00,
2013-02-02 11:00:00,23.6,3.9,30.18,NW,304,0.0,10.0,42,0.00,,---,0.00,VWS V13.01,2013-02-02 16:00:00,
2013-02-02 11:05:00,23.9,3.1,30.18,WNW,286,2.0,12.0,40,0.00,,---,0.00,VWS V13.01,2013-02-02 16:05:00,
2013-02-02 11:10:00,24.1,3.8,30.17,WNW,282,1.0,12.0,41,0.00,,---,0.00,VWS V13.01,2013-02-02 16:10:00,
2013-02-02 11:15:00,24.2,3.9,30.17,WNW,287,5.0,13.0,41,0.00,,---,0.00,VWS V13.01,2013-02-02 16:15:00,
2013-02-02 11:20:00,23.8,3.5,30.17,WSW,241,0.0,13.0,41,0.00,,---,0.00,VWS V13.01,2013-02-02 16:20:00,
2013-02-02 11:25:00,24.1,3.3,30.17,SW,235,0.0,13.0,40,0.00,,---,0.00,VWS V13.01,2013-02-02 16:25:00,
2013-02-02 11:30:00,24.2,3.9,30.17,WNW,289,7.0,12.0,41,0.00,,---,0.00,VWS V13.01,2013-02-02 16:30:00,
2013-02-02 11:35:00,24.4,4.1,30.17,SW,217,6.0,12.0,41,0.00,,---,0.00,VWS V13.01,2013-02-02 16:35:00,
2013-02-02 11:40:00,24.7,4.4,30.16,WNW,296,1.0,12.0,41,0.00,,---,0.00,VWS V13.01,2013-02-02 16:40:00,
2013-02-02 11:45:00,24.8,3.9,30.16,SW,228,0.0,12.0,40,0.00,,---,0.00,VWS V13.01,2013-02-02 16:45:00,
2013-02-02 11:50:00,24.8,4.4,30.16,SW,217,4.0,12.0,41,0.00,,---,0.00,VWS V13.01,2013-02-02 16:50:00,
2013-02-02 11:55:00,25.4,5.5,30.14,SW,232,0.0,12.0,42,0.00,,---,0.00,VWS V13.01,2013-02-02 16:55:00,
2013-02-02 12:00:00,25.8,5.4,30.14,West,279,1.0,11.0,41,0.00,,---,0.00,VWS V13.01,2013-02-02 17:00:00,
2013-02-02 12:05:00,25.8,4.8,30.14,SW,226,3.0,12.0,40,0.00,,---,0.00,VWS V13.01,2013-02-02 17:05:00,
2013-02-02 12:10:00,25.7,3.6,30.14,WNW,300,6.0,16.0,38,0.00,,---,0.00,VWS V13.01,2013-02-02 17:10:00,
2013-02-02 12:15:00,25.6,4.1,30.14,SW,225,6.0,14.0,39,0.00,,---,0.00,VWS V13.01,2013-02-02 17:15:00,
2013-02-02 12:20:00,25.6,4.1,30.14,SW,224,4.0,14.0,39,0.00,,---,0.00,VWS V13.01,2013-02-02 17:20:00,
2013-02-02 12:25:00,26.6,5.0,30.13,SW,228,2.0,14.0,39,0.00,,---,0.00,VWS V13.01,2013-02-02 17:25:00,
2013-02-02 12:30:00,27.0,4.2,30.13,WSW,246,5.0,10.0,37,0.00,,---,0.00,VWS V13.01,2013-02-02 17:30:00,
2013-02-02 12:35:00,27.0,4.2,30.13,SW,224,1.0,13.0,37,0.00,,---,0.00,VWS V13.01,2013-02-02 17:35:00,
2013-02-02 12:40:00,26.7,5.1,30.12,WNW,303,1.0,13.0,39,0.00,,---,0.00,VWS V13.01,2013-02-02 17:40:00,
2013-02-02 12:45:00,26.7,4.5,30.12,WSW,238,3.0,13.0,38,0.00,,---,0.00,VWS V13.01,2013-02-02 17:45:00,
2013-02-02 12:50:00,26.9,5.3,30.12,SW,219,5.0,13.0,39,0.00,,---,0.00,VWS V13.01,2013-02-02 17:50:00,
2013-02-02 12:55:00,27.0,4.8,30.11,WNW,283,4.0,13.0,38,0.00,,---,0.00,VWS V13.01,2013-02-02 17:55:00,
2013-02-02 13:00:00,27.2,5.0,30.11,WNW,282,1.0,12.0,38,0.00,,---,0.00,VWS V13.01,2013-02-02 18:00:00,
2013-02-02 13:05:00,27.2,3.8,30.11,WNW,300,4.0,12.0,36,0.00,,---,0.00,VWS V13.01,2013-02-02 18:05:00,
2013-02-02 13:10:00,27.3,5.1,30.10,WNW,292,2.0,15.0,38,0.00,,---,0.00,VWS V13.01,2013-02-02 18:10:00,
2013-02-02 13:15:00,27.5,5.2,30.10,WNW,286,10.0,11.0,38,0.00,,---,0.00,VWS V13.01,2013-02-02 18:15:00,
2013-02-02 13:20:00,27.2,3.8,30.10,WNW,294,2.0,16.0,36,0.00,,---,0.00,VWS V13.01,2013-02-02 18:20:00,
2013-02-02 13:25:00,27.6,4.2,30.09,WNW,284,11.0,16.0,36,0.00,,---,0.00,VWS V13.01,2013-02-02 18:25:00,
2013-02-02 13:30:00,27.6,3.5,30.09,West,280,8.0,15.0,35,0.00,,---,0.00,VWS V13.01,2013-02-02 18:30:00,
2013-02-02 13:35:00,27.5,4.1,30.09,West,278,12.0,16.0,36,0.00,,---,0.00,VWS V13.01,2013-02-02 18:35:00,
2013-02-02 13:40:00,27.8,3.1,30.08,West,281,6.0,16.0,34,0.00,,---,0.00,VWS V13.01,2013-02-02 18:40:00,
2013-02-02 13:45:00,27.6,3.5,30.08,NW,306,12.0,12.0,35,0.00,,---,0.00,VWS V13.01,2013-02-02 18:45:00,
2013-02-02 13:50:00,27.3,3.3,30.08,WNW,286,7.0,19.0,35,0.00,,---,0.00,VWS V13.01,2013-02-02 18:50:00,
2013-02-02 13:55:00,27.5,4.1,30.08,SW,224,3.0,19.0,36,0.00,,---,0.00,VWS V13.01,2013-02-02 18:55:00,
2013-02-02 14:00:00,28.2,4.1,30.08,WNW,302,1.0,9.0,35,0.00,,---,0.00,VWS V13.01,2013-02-02 19:00:00,
2013-02-02 14:05:00,27.9,3.8,30.08,WNW,286,10.0,13.0,35,0.00,,---,0.00,VWS V13.01,2013-02-02 19:05:00,
2013-02-02 14:10:00,27.6,3.5,30.07,WNW,298,7.0,14.0,35,0.00,,---,0.00,VWS V13.01,2013-02-02 19:10:00,
2013-02-02 14:15:00,27.6,2.9,30.07,West,273,3.0,14.0,34,0.00,,---,0.00,VWS V13.01,2013-02-02 19:15:00,
2013-02-02 14:20:00,27.5,3.5,30.07,WNW,296,1.0,14.0,35,0.00,,---,0.00,VWS V13.01,2013-02-02 19:20:00,
2013-02-02 14:25:00,27.3,3.3,30.07,SW,233,2.0,14.0,35,0.00,,---,0.00,VWS V13.01,2013-02-02 19:25:00,
2013-02-02 14:30:00,26.9,2.9,30.07,WNW,302,2.0,12.0,35,0.00,,---,0.00,VWS V13.01,2013-02-02 19:30:00,
2013-02-02 14:35:00,26.6,4.4,30.07,West,275,7.0,14.0,38,0.00,,---,0.00,VWS V13.01,2013-02-02 19:35:00,
2013-02-02 14:40:00,26.4,4.2,30.06,West,270,2.0,15.0,38,0.00,,---,0.00,VWS V13.01,2013-02-02 19:40:00,
2013-02-02 14:45:00,26.4,4.8,30.06,WNW,303,6.0,15.0,39,0.00,,---,0.00,VWS V13.01,2013-02-02 19:45:00,
2013-02-02 14:50:00,26.3,4.7,30.06,WNW,291,10.0,15.0,39,0.00,,---,0.00,VWS V13.01,2013-02-02 19:50:00,
2013-02-02 14:55:00,26.3,4.7,30.06,WNW,292,5.0,15.0,39,0.00,,---,0.00,VWS V13.01,2013-02-02 19:55:00,
2013-02-02 15:00:00,26.3,5.8,30.06,WNW,293,1.0,10.0,41,0.00,,---,0.00,VWS V13.01,2013-02-02 20:00:00,
2013-02-02 15:05:00,26.3,5.8,30.06,NW,325,0.0,12.0,41,0.00,,---,0.00,VWS V13.01,2013-02-02 20:05:00,
2013-02-02 15:10:00,26.3,6.9,30.06,WNW,289,5.0,12.0,43,0.00,,---,0.00,VWS V13.01,2013-02-02 20:10:00,
2013-02-02 15:15:00,26.1,6.7,30.06,WNW,294,2.0,14.0,43,0.00,,---,0.00,VWS V13.01,2013-02-02 20:15:00,
2013-02-02 15:20:00,26.0,7.1,30.06,WNW,299,9.0,14.0,44,0.00,,---,0.00,VWS V13.01,2013-02-02 20:20:00,
2013-02-02 15:25:00,25.8,6.9,30.06,WNW,292,7.0,15.0,44,0.00,,---,0.00,VWS V13.01,2013-02-02 20:25:00,
2013-02-02 15:30:00,25.7,7.3,30.06,WNW,296,10.0,14.0,45,0.00,,---,0.00,VWS V13.01,2013-02-02 20:30:00,
2013-02-02 15:35:00,25.6,7.7,30.06,WNW,284,4.0,14.0,46,0.00,,---,0.00,VWS V13.01,2013-02-02 20:35:00,
2013-02-02 15:40:00,25.6,7.7,30.05,WNW,290,9.0,14.0,46,0.00,,---,0.00,VWS V13.01,2013-02-02 20:40:00,
2013-02-02 15:45:00,25.6,7.7,30.05,WNW,288,1.0,13.0,46,0.00,,---,0.00,VWS V13.01,2013-02-02 20:45:00,
2013-02-02 15:50:00,25.4,7.5,30.05,West,281,10.0,13.0,46,0.00,,---,0.00,VWS V13.01,2013-02-02 20:50:00,
2013-02-02 15:55:00,25.4,8.0,30.05,WNW,299,5.0,13.0,47,0.00,,---,0.00,VWS V13.01,2013-02-02 20:55:00,
2013-02-02 16:00:00,25.4,8.0,30.05,WNW,283,6.0,10.0,47,0.00,,---,0.00,VWS V13.01,2013-02-02 21:00:00,
2013-02-02 16:05:00,25.4,8.5,30.05,WNW,290,2.0,10.0,48,0.00,,---,0.00,VWS V13.01,2013-02-02 21:05:00,
2013-02-02 16:10:00,25.6,8.6,30.04,WNW,289,0.0,10.0,48,0.00,,---,0.00,VWS V13.01,2013-02-02 21:10:00,
2013-02-02 16:15:00,25.4,8.5,30.04,WNW,289,6.0,11.0,48,0.00,,---,0.00,VWS V13.01,2013-02-02 21:15:00,
2013-02-02 16:20:00,25.4,8.5,30.04,WNW,290,6.0,12.0,48,0.00,,---,0.00,VWS V13.01,2013-02-02 21:20:00,
2013-02-02 16:25:00,25.3,8.4,30.03,WNW,292,4.0,12.0,48,0.00,,---,0.00,VWS V13.01,2013-02-02 21:25:00,
2013-02-02 16:30:00,25.4,8.5,30.03,West,279,4.0,9.0,48,0.00,,---,0.00,VWS V13.01,2013-02-02 21:30:00,
2013-02-02 16:35:00,25.4,8.9,30.03,WNW,294,6.0,9.0,49,0.00,,---,0.00,VWS V13.01,2013-02-02 21:35:00,
2013-02-02 16:40:00,25.4,8.9,30.03,West,280,0.0,9.0,49,0.00,,---,0.00,VWS V13.01,2013-02-02 21:40:00,
2013-02-02 16:45:00,25.4,8.9,30.03,WNW,292,2.0,6.0,49,0.00,,---,0.00,VWS V13.01,2013-02-02 21:45:00,
2013-02-02 16:50:00,25.4,9.4,30.03,WNW,297,4.0,7.0,50,0.00,,---,0.00,VWS V13.01,2013-02-02 21:50:00,
2013-02-02 16:55:00,25.4,9.4,30.03,WNW,303,3.0,7.0,50,0.00,,---,0.00,VWS V13.01,2013-02-02 21:55:00,
2013-02-02 17:00:00,25.3,9.3,30.03,WNW,292,3.0,9.0,50,0.00,,---,0.00,VWS V13.01,2013-02-02 22:00:00,
2013-02-02 17:05:00,25.3,9.7,30.03,West,279,0.0,9.0,51,0.00,,---,0.00,VWS V13.01,2013-02-02 22:05:00,
2013-02-02 17:10:00,25.3,9.7,30.03,WNW,282,6.0,10.0,51,0.00,,---,0.00,VWS V13.01,2013-02-02 22:10:00,
2013-02-02 17:15:00,25.4,10.2,30.03,WNW,284,3.0,6.0,52,0.00,,---,0.00,VWS V13.01,2013-02-02 22:15:00,
2013-02-02 17:20:00,25.4,10.2,30.03,West,275,2.0,10.0,52,0.00,,---,0.00,VWS V13.01,2013-02-02 22:20:00,
2013-02-02 17:25:00,25.4,10.2,30.03,WSW,241,0.0,10.0,52,0.00,,---,0.00,VWS V13.01,2013-02-02 22:25:00,
2013-02-02 17:30:00,25.4,10.7,30.03,WNW,292,2.0,7.0,53,0.00,,---,0.00,VWS V13.01,2013-02-02 22:30:00,
2013-02-02 17:35:00,25.4,11.1,30.03,WNW,291,6.0,7.0,54,0.00,,---,0.00,VWS V13.01,2013-02-02 22:35:00,
2013-02-02 17:40:00,25.6,11.3,30.03,WNW,286,3.0,8.0,54,0.00,,---,0.00,VWS V13.01,2013-02-02 22:40:00,
2013-02-02 17:45:00,25.6,11.3,30.02,NW,306,5.0,7.0,54,0.00,,---,0.00,VWS V13.01,2013-02-02 22:45:00,
2013-02-02 17:50:00,25.6,12.1,30.02,WNW,302,5.0,10.0,56,0.00,,---,0.00,VWS V13.01,2013-02-02 22:50:00,
2013-02-02 17:55:00,25.4,11.9,30.02,WNW,300,3.0,10.0,56,0.00,,---,0.00,VWS V13.01,2013-02-02 22:55:00,
2013-02-02 18:00:00,25.4,11.9,30.02,WNW,296,3.0,5.0,56,0.00,,---,0.00,VWS V13.01,2013-02-02 23:00:00,
2013-02-02 18:05:00,25.4,11.9,30.02,West,279,3.0,6.0,56,0.00,,---,0.00,VWS V13.01,2013-02-02 23:05:00,
2013-02-02 18:10:00,25.4,11.9,30.02,WNW,289,4.0,6.0,56,0.00,,---,0.00,VWS V13.01,2013-02-02 23:10:00,
2013-02-02 18:15:00,25.4,12.3,30.02,NW,304,3.0,5.0,57,0.00,,---,0.00,VWS V13.01,2013-02-02 23:15:00,
2013-02-02 18:20:00,25.4,12.3,30.02,WNW,303,3.0,5.0,57,0.00,,---,0.00,VWS V13.01,2013-02-02 23:20:00,
2013-02-02 18:25:00,25.4,12.3,30.02,WNW,298,3.0,6.0,57,0.00,,---,0.00,VWS V13.01,2013-02-02 23:25:00,
2013-02-02 18:30:00,25.4,12.3,30.02,WNW,298,0.0,3.0,57,0.00,,---,0.00,VWS V13.01,2013-02-02 23:30:00,
2013-02-02 18:35:00,25.4,12.3,30.02,WNW,300,1.0,5.0,57,0.00,,---,0.00,VWS V13.01,2013-02-02 23:35:00,
2013-02-02 18:40:00,25.4,12.3,30.02,WNW,298,4.0,7.0,57,0.00,,---,0.00,VWS V13.01,2013-02-02 23:40:00,
2013-02-02 18:45:00,25.4,12.3,30.02,WNW,298,0.0,3.0,57,0.00,,---,0.00,VWS V13.01,2013-02-02 23:45:00,
2013-02-02 18:50:00,25.4,12.3,30.02,WNW,298,2.0,3.0,57,0.00,,---,0.00,VWS V13.01,2013-02-02 23:50:00,
2013-02-02 18:55:00,25.4,12.3,30.02,WNW,298,0.0,3.0,57,0.00,,---,0.00,VWS V13.01,2013-02-02 23:55:00,
2013-02-02 19:00:00,25.6,12.5,30.02,WNW,297,0.0,5.0,57,0.00,,---,0.00,VWS V13.01,2013-02-03 00:00:00,
2013-02-02 19:05:00,25.6,12.5,30.02,WNW,297,0.0,5.0,57,0.00,,---,0.00,VWS V13.01,2013-02-03 00:05:00,
2013-02-02 19:10:00,25.6,13.3,30.02,SW,232,7.0,10.0,59,0.00,,---,0.00,VWS V13.01,2013-02-03 00:10:00,
2013-02-02 19:15:00,25.6,14.0,30.02,WNW,287,1.0,9.0,61,0.00,,---,0.00,VWS V13.01,2013-02-03 00:15:00,
2013-02-02 19:20:00,25.4,14.2,30.02,West,276,0.0,9.0,62,0.00,,---,0.00,VWS V13.01,2013-02-03 00:20:00,
2013-02-02 19:25:00,25.4,13.8,30.02,SW,234,0.0,9.0,61,0.00,,---,0.00,VWS V13.01,2013-02-03 00:25:00,
2013-02-02 19:30:00,25.4,13.8,30.02,SW,223,0.0,5.0,61,0.00,,---,0.00,VWS V13.01,2013-02-03 00:30:00,
2013-02-02 19:35:00,25.4,14.2,30.02,WNW,286,2.0,5.0,62,0.00,,---,0.00,VWS V13.01,2013-02-03 00:35:00,
2013-02-02 19:40:00,25.4,14.2,30.02,West,261,2.0,10.0,62,0.00,,---,0.00,VWS V13.01,2013-02-03 00:40:00,
2013-02-02 19:45:00,25.4,14.6,30.02,NW,313,4.0,5.0,63,0.00,,---,0.00,VWS V13.01,2013-02-03 00:45:00,
2013-02-02 19:50:00,25.3,15.2,30.02,WNW,294,2.0,5.0,65,0.00,,---,0.00,VWS V13.01,2013-02-03 00:50:00,
2013-02-02 19:55:00,25.1,15.7,30.02,West,264,0.0,7.0,67,0.00,,---,0.00,VWS V13.01,2013-02-03 00:55:00,
2013-02-02 20:00:00,24.8,16.1,30.02,West,262,1.0,11.0,69,0.00,,---,0.00,VWS V13.01,2013-02-03 01:00:00,
2013-02-02 20:05:00,24.8,16.4,30.02,West,273,0.0,11.0,70,0.00,,---,0.00,VWS V13.01,2013-02-03 01:05:00,
2013-02-02 20:10:00,24.7,16.6,30.02,West,280,2.0,11.0,71,0.00,,---,0.00,VWS V13.01,2013-02-03 01:10:00,
2013-02-02 20:15:00,24.5,16.5,30.02,WNW,286,1.0,4.0,71,0.00,,---,0.00,VWS V13.01,2013-02-03 01:15:00,
2013-02-02 20:20:00,24.4,16.7,30.02,WNW,290,2.0,5.0,72,0.00,,---,0.00,VWS V13.01,2013-02-03 01:20:00,
2013-02-02 20:25:00,24.2,16.8,30.02,WNW,283,2.0,9.0,73,0.00,,---,0.00,VWS V13.01,2013-02-03 01:25:00,
2013-02-02 20:30:00,24.2,17.1,30.02,West,277,0.0,5.0,74,0.00,,---,0.00,VWS V13.01,2013-02-03 01:30:00,
2013-02-02 20:35:00,24.1,17.6,30.02,WNW,291,2.0,5.0,76,0.00,,---,0.00,VWS V13.01,2013-02-03 01:35:00,
2013-02-02 20:40:00,23.9,18.0,30.02,WNW,290,2.0,7.0,78,0.00,,---,0.00,VWS V13.01,2013-02-03 01:40:00,
2013-02-02 20:45:00,23.8,18.2,30.02,WNW,294,0.0,5.0,79,0.00,,---,0.00,VWS V13.01,2013-02-03 01:45:00,
2013-02-02 20:50:00,23.6,18.4,30.02,WNW,292,0.0,5.0,80,0.00,,---,0.00,VWS V13.01,2013-02-03 01:50:00,
2013-02-02 20:55:00,23.5,18.5,30.02,WNW,292,0.0,5.0,81,0.00,,---,0.00,VWS V13.01,2013-02-03 01:55:00,
2013-02-02 21:00:00,23.5,18.8,30.02,WNW,292,0.0,0.0,82,0.00,,---,0.00,VWS V13.01,2013-02-03 02:00:00,
2013-02-02 21:05:00,23.5,19.1,30.02,WNW,292,0.0,0.0,83,0.00,,---,0.00,VWS V13.01,2013-02-03 02:05:00,
2013-02-02 21:10:00,23.5,19.1,30.02,WNW,292,0.0,0.0,83,0.00,,---,0.00,VWS V13.01,2013-02-03 02:10:00,
2013-02-02 21:15:00,23.3,19.2,30.02,WNW,292,0.0,0.0,84,0.00,,---,0.00,VWS V13.01,2013-02-03 02:15:00,
2013-02-02 21:20:00,23.3,19.2,30.02,WNW,292,0.0,0.0,84,0.00,,---,0.00,VWS V13.01,2013-02-03 02:20:00,
2013-02-02 21:25:00,23.3,19.2,30.02,WNW,292,0.0,0.0,84,0.00,,---,0.00,VWS V13.01,2013-02-03 02:25:00,
2013-02-02 21:30:00,23.3,19.2,30.02,WNW,292,0.0,0.0,84,0.00,,---,0.00,VWS V13.01,2013-02-03 02:30:00,
2013-02-02 21:35:00,23.3,19.5,30.02,WNW,292,0.0,0.0,85,0.00,,---,0.00,VWS V13.01,2013-02-03 02:35:00,
2013-02-02 21:40:00,23.3,19.7,30.02,WNW,292,0.0,0.0,86,0.00,,---,0.00,VWS V13.01,2013-02-03 02:40:00,
2013-02-02 21:45:00,23.3,19.7,30.01,WNW,292,0.0,0.0,86,0.00,,---,0.00,VWS V13.01,2013-02-03 02:45:00,
2013-02-02 21:50:00,23.3,19.7,30.01,WNW,292,0.0,0.0,86,0.00,,---,0.00,VWS V13.01,2013-02-03 02:50:00,
2013-02-02 21:54:00,23.2,19.9,30.01,WNW,292,0.0,0.0,87,0.00,,---,0.00,VWS V13.01,2013-02-03 02:54:00,
2013-02-02 21:59:00,23.2,19.9,30.01,WNW,292,0.0,0.0,87,0.00,,---,0.00,VWS V13.01,2013-02-03 02:59:00,
2013-02-02 22:04:00,23.2,19.9,30.01,WNW,292,0.0,0.0,87,0.00,,---,0.00,VWS V13.01,2013-02-03 03:04:00,
2013-02-02 22:09:00,23.2,20.2,30.01,WNW,292,0.0,0.0,88,0.00,,---,0.00,VWS V13.01,2013-02-03 03:09:00,
2013-02-02 22:14:00,23.2,20.2,30.00,WNW,292,0.0,0.0,88,0.00,,---,0.00,VWS V13.01,2013-02-03 03:14:00,
2013-02-02 22:19:00,23.2,20.2,30.00,WNW,292,0.0,0.0,88,0.00,,---,0.00,VWS V13.01,2013-02-03 03:19:00,
2013-02-02 22:24:00,23.2,20.2,30.00,WNW,292,0.0,0.0,88,0.00,,---,0.00,VWS V13.01,2013-02-03 03:24:00,
2013-02-02 22:29:00,23.2,20.2,30.00,WNW,292,0.0,0.0,88,0.00,,---,0.00,VWS V13.01,2013-02-03 03:29:00,
2013-02-02 22:34:00,23.0,20.0,30.00,WNW,292,0.0,0.0,88,0.00,,---,0.00,VWS V13.01,2013-02-03 03:34:00,
2013-02-02 22:39:00,23.0,20.2,30.00,WNW,292,0.0,0.0,89,0.00,,---,0.00,VWS V13.01,2013-02-03 03:39:00,
2013-02-02 22:44:00,23.0,20.2,29.99,WNW,292,0.0,0.0,89,0.00,,---,0.00,VWS V13.01,2013-02-03 03:44:00,
2013-02-02 22:49:00,23.0,20.2,29.99,WNW,292,0.0,0.0,89,0.00,,---,0.00,VWS V13.01,2013-02-03 03:49:00,
2013-02-02 22:54:00,23.0,20.2,29.99,WNW,292,0.0,0.0,89,0.00,,---,0.00,VWS V13.01,2013-02-03 03:54:00,
2013-02-02 22:59:00,23.0,20.2,29.98,WNW,292,0.0,0.0,89,0.00,,---,0.00,VWS V13.01,2013-02-03 03:59:00,
2013-02-02 23:04:00,23.0,20.2,29.98,WNW,292,0.0,0.0,89,0.00,,---,0.00,VWS V13.01,2013-02-03 04:04:00,
2013-02-02 23:09:00,23.0,20.2,29.98,WNW,292,0.0,0.0,89,0.00,,---,0.00,VWS V13.01,2013-02-03 04:09:00,
2013-02-02 23:14:00,23.0,20.2,29.98,WNW,292,0.0,0.0,89,0.00,,---,0.00,VWS V13.01,2013-02-03 04:14:00,
2013-02-02 23:19:00,23.0,20.2,29.98,WNW,292,0.0,0.0,89,0.00,,---,0.00,VWS V13.01,2013-02-03 04:19:00,
2013-02-02 23:24:00,23.0,20.2,29.98,WNW,292,0.0,0.0,89,0.00,,---,0.00,VWS V13.01,2013-02-03 04:24:00,
2013-02-02 23:29:00,23.0,20.5,29.97,WNW,292,0.0,0.0,90,0.00,,---,0.00,VWS V13.01,2013-02-03 04:29:00,
2013-02-02 23:34:00,23.0,20.5,29.97,WNW,292,0.0,0.0,90,0.00,,---,0.00,VWS V13.01,2013-02-03 04:34:00,
2013-02-02 23:39:00,23.0,20.5,29.97,WNW,292,0.0,0.0,90,0.00,,---,0.00,VWS V13.01,2013-02-03 04:39:00,
2013-02-02 23:44:00,22.9,20.4,29.97,WNW,292,0.0,0.0,90,0.00,,---,0.00,VWS V13.01,2013-02-03 04:44:00,
2013-02-02 23:49:00,22.9,20.4,29.97,WNW,292,0.0,0.0,90,0.00,,---,0.00,VWS V13.01,2013-02-03 04:49:00,
2013-02-02 23:54:00,22.9,20.4,29.97,WNW,292,0.0,0.0,90,0.00,,---,0.00,VWS V13.01,2013-02-03 04:54:00,
2013-02-02 23:59:00,22.9,20.4,29.97,WNW,292,0.0,0.0,90,0.00,,---,0.00,VWS V13.01,2013-02-03 04:59:00,